QPF
0.00 0.00 0.00 0.00 0.00 0.00 0.00 0.00 0.00 0.00 0.00 0.00 0.00 0.00 0.00 0.00 0.00 0.00 0.00 0.00 0.00 0.00 0.00 0.00 0.00 0.00 0.00 0.00 0.00 0.00 0.00 0.00 0.00 0.00 0.00 0.00 0.00 0.00 0.00 0.00 0.00 0.03 0.04
0.00 0.00 0.00 0.00 0.00 0.00 0.00 0.00 0.00 0.00 0.00 0.00 0.00 0.00 0.00 0.00 0.00 0.00 0.00 0.00 0.00 0.00 0.00 0.00 0.00 0.00 0.00 0.00 0.00 0.00 0.00 0.00 0.00 0.00 0.00 0.00 0.00 0.00 0.00 0.00 0.00 0.06 0.02
0.00 0.00 0.00 0.00 0.00 0.00 0.00 0.00 0.00 0.00 0.00 0.00 0.00 0.00 0.00 0.00 0.00 0.00 0.00 0.00 0.00 0.00 0.00 0.00 0.00 0.00 0.00 0.00 0.00 0.00 0.00 0.00 0.00 0.00 0.00 0.00 0.00 0.00 0.00 0.02 0.00 0.01 0.01
0.00 0.00 0.00 0.00 0.00 0.00 0.00 0.00 0.00 0.00 0.00 0.00 0.00 0.00 0.00 0.00 0.00 0.00 0.00 0.00 0.00 0.00 0.00 0.00 0.00 0.00 0.00 0.00 0.00 0.00 0.00 0.00 0.00 0.00 0.00 0.00 0.00 0.00 0.00 0.00 0.03 0.01 0.01
0.00 0.00 0.00 0.00 0.00 0.00 0.00 0.00 0.00 0.00 0.00 0.00 0.00 0.00 0.00 0.00 0.00 0.00 0.00 0.00 0.00 0.00 0.00 0.00 0.00 0.00 0.00 0.00 0.00 0.00 0.00 0.00 0.00 0.00 0.00 0.00 0.00 0.00 0.00 0.00 0.01 0.02 0.01
0.00 0.00 0.00 0.00 0.00 0.00 0.00 0.00 0.00 0.00 0.00 0.00 0.00 0.00 0.00 0.00 0.00 0.00 0.00 0.00 0.00 0.00 0.00 0.00 0.00 0.00 0.00 0.00 0.00 0.00 0.00 0.00 0.00 0.00 0.00 0.00 0.00 0.00 0.00 0.00 0.00 0.00 0.02
0.00 0.00 0.00 0.00 0.00 0.00 0.00 0.00 0.00 0.00 0.00 0.00 0.00 0.00 0.00 0.00 0.00 0.00 0.00 0.00 0.00 0.00 0.00 0.00 0.00 0.00 0.00 0.00 0.00 0.00 0.00 0.00 0.00 0.00 0.00 0.00 0.00 0.00 0.00 0.00 0.00 0.00 0.02
0.00 0.00 0.00 0.00 0.00 0.00 0.00 0.00 0.00 0.00 0.00 0.00 0.00 0.00 0.00 0.00 0.00 0.00 0.00 0.00 0.00 0.00 0.00 0.00 0.00 0.00 0.00 0.00 0.00 0.00 0.00 0.00 0.00 0.00 0.00 0.00 0.00 0.00 0.00 0.00 0.00 0.00 0.01
0.00 0.00 0.00 0.00 0.00 0.00 0.00 0.00 0.00 0.00 0.00 0.00 0.00 0.00 0.00 0.00 0.00 0.00 0.00 0.00 0.00 0.00 0.00 0.00 0.00 0.00 0.00 0.00 0.00 0.00 0.00 0.00 0.00 0.00 0.00 0.00 0.00 0.00 0.00 0.00 0.00 0.00 0.00
0.00 0.00 0.00 0.00 0.00 0.00 0.00 0.00 0.00 0.00 0.00 0.00 0.00 0.00 0.00 0.00 0.00 0.00 0.00 0.00 0.00 0.00 0.00 0.00 0.00 0.00 0.00 0.00 0.00 0.00 0.00 0.00 0.00 0.00 0.00 0.00 0.00 0.00 0.00 0.00 0.00 0.00 0.00
0.00 0.00 0.00 0.00 0.00 0.00 0.00 0.00 0.00 0.00 0.00 0.00 0.00 0.00 0.00 0.00 0.00 0.00 0.00 0.00 0.00 0.00 0.00 0.00 0.00 0.00 0.00 0.00 0.00 0.00 0.00 0.00 0.00 0.00 0.00 0.00 0.00 0.00 0.00 0.00 0.00 0.00 0.00
0.00 0.00 0.00 0.00 0.00 0.00 0.00 0.00 0.00 0.00 0.00 0.00 0.00 0.00 0.00 0.00 0.00 0.00 0.00 0.00 0.00 0.00 0.00 0.00 0.00 0.00 0.00 0.00 0.00 0.00 0.00 0.00 0.00 0.00 0.00 0.00 0.00 0.00 0.00 0.00 0.00 0.00 0.00
0.00 0.00 0.00 0.00 0.00 0.00 0.00 0.00 0.00 0.00 0.00 0.00 0.00 0.00 0.00 0.00 0.00 0.00 0.00 0.00 0.00 0.00 0.00 0.00 0.00 0.00 0.00 0.00 0.00 0.00 0.00 0.00 0.00 0.00 0.00 0.00 0.00 0.00 0.00 0.00 0.00 0.00 0.01
0.00 0.00 0.00 0.00 0.00 0.00 0.00 0.00 0.00 0.00 0.00 0.00 0.00 0.00 0.00 0.00 0.00 0.00 0.00 0.00 0.00 0.00 0.00 0.00 0.00 0.00 0.00 0.00 0.00 0.00 0.00 0.00 0.00 0.00 0.00 0.00 0.00 0.00 0.00 0.00 0.00 0.00 0.04
0.00 0.00 0.00 0.00 0.00 0.00 0.00 0.00 0.00 0.00 0.00 0.00 0.00 0.00 0.00 0.00 0.00 0.00 0.00 0.00 0.00 0.00 0.00 0.00 0.00 0.00 0.00 0.00 0.00 0.00 0.00 0.00 0.00 0.00 0.00 0.00 0.00 0.03 0.04 0.01 0.00 0.00 0.02
0.00 0.00 0.00 0.00 0.00 0.00 0.00 0.00 0.00 0.00 0.00 0.00 0.00 0.00 0.00 0.00 0.00 0.00 0.00 0.00 0.00 0.00 0.00 0.00 0.00 0.00 0.00 0.00 0.00 0.00 0.00 0.00 0.00 0.00 0.00 0.00 0.02 0.01 0.01 0.00 0.00 0.00 0.01
0.00 0.00 0.00 0.00 0.00 0.00 0.00 0.00 0.00 0.00 0.00 0.00 0.00 0.00 0.00 0.00 0.00 0.00 0.00 0.00 0.00 0.00 0.00 0.00 0.00 0.00 0.00 0.00 0.00 0.01 0.05 0.02 0.00 0.00 0.00 0.00 0.00 0.00 0.00 0.00 0.00 0.00 0.01
0.00 0.00 0.00 0.00 0.00 0.00 0.00 0.00 0.00 0.00 0.00 0.00 0.00 0.00 0.00 0.00 0.00 0.00 0.00 0.00 0.00 0.00 0.00 0.00 0.00 0.00 0.00 0.03 0.09 0.12 0.09 0.01 0.01 0.03 0.05 0.01 0.00 0.00 0.00 0.00 0.00 0.00 0.01
0.00 0.00 0.00 0.00 0.00 0.00 0.00 0.00 0.00 0.00 0.00 0.00 0.00 0.00 0.00 0.00 0.00 0.00 0.00 0.00 0.00 0.00 0.00 0.00 0.00 0.00 0.06 0.08 0.07 0.09 0.04 0.01 0.02 0.03 0.03 0.03 0.05 0.01 0.00 0.00 0.01 0.00 0.00
0.00 0.00 0.00 0.00 0.00 0.00 0.00 0.00 0.00 0.00 0.00 0.00 0.00 0.00 0.00 0.00 0.00 0.00 0.00 0.00 0.00 0.01 0.00 0.00 0.01 0.06 0.10 0.07 0.04 0.01 0.01 0.02 0.01 0.03 0.05 0.07 0.08 0.07 0.01 0.04 0.05 0.00 0.00
0.00 0.00 0.00 0.00 0.00 0.00 0.00 0.00 0.00 0.00 0.00 0.00 0.00 0.00 0.00 0.00 0.00 0.00 0.00 0.00 0.00 0.01 0.00 0.00 0.07 0.09 0.06 0.04 0.01 0.00 0.00 0.00 0.01 0.02 0.05 0.08 0.07 0.03 0.01 0.04 0.05 0.02 0.00
0.00 0.00 0.00 0.00 0.00 0.00 0.00 0.00 0.00 0.00 0.00 0.00 0.00 0.00 0.00 0.00 0.00 0.00 0.00 0.00 0.00 0.00 0.00 0.00 0.08 0.07 0.08 0.03 0.03 0.02 0.00 0.01 0.01 0.02 0.03 0.06 0.06 0.08 0.07 0.07 0.04 0.04 0.02
0.00 0.00 0.00 0.00 0.00 0.00 0.00 0.00 0.00 0.00 0.00 0.00 0.00 0.00 0.00 0.00 0.00 0.00 0.00 0.00 0.00 0.00 0.01 0.01 0.11 0.05 0.08 0.03 0.01 0.01 0.00 0.00 0.01 0.02 0.01 0.05 0.12 0.14 0.14 0.13 0.05 0.03 0.01
0.00 0.00 0.00 0.00 0.00 0.00 0.00 0.00 0.00 0.00 0.00 0.00 0.00 0.00 0.00 0.00 0.00 0.00 0.00 0.00 0.00 0.00 0.00 0.09 0.09 0.02 0.05 0.05 0.01 0.00 0.00 0.00 0.02 0.07 0.03 0.04 0.18 0.19 0.18 0.14 0.11 0.04 0.06
0.00 0.00 0.00 0.00 0.00 0.00 0.00 0.00 0.00 0.00 0.00 0.00 0.00 0.00 0.00 0.00 0.00 0.00 0.00 0.00 0.00 0.02 0.00 0.06 0.05 0.03 0.03 0.00 0.00 0.00 0.00 0.01 0.04 0.06 0.12 0.09 0.16 0.13 0.10 0.12 0.12 0.10 0.11
0.00 0.00 0.00 0.00 0.00 0.00 0.00 0.00 0.00 0.00 0.00 0.00 0.00 0.00 0.00 0.00 0.00 0.00 0.00 0.00 0.01 0.05 0.10 0.08 0.03 0.01 0.00 0.00 0.00 0.00 0.01 0.01 0.04 0.09 0.16 0.09 0.05 0.03 0.03 0.02 0.15 0.11 0.06
MSLP
1005.47 1006.65 1008.22 1008.80 1009.30 1009.61 1009.80 1010.15 1010.39 1010.74 1010.94 1011.26 1011.57 1011.83 1012.23 1012.52 1012.70 1012.84 1012.93 1013.09 1013.27 1013.41 1013.54 1013.75 1013.93 1014.08 1014.24 1014.41 1014.55 1014.59 1014.68 1014.73 1014.71 1014.66 1014.66 1014.60 1014.44 1014.48 1014.40 1014.31 1014.38 1014.04 1014.54
1004.93 1006.52 1008.06 1008.56 1009.12 1009.61 1009.93 1010.17 1010.44 1010.76 1010.95 1011.32 1011.64 1011.96 1012.22 1012.58 1012.85 1013.06 1013.11 1013.28 1013.44 1013.65 1013.79 1013.97 1014.00 1014.15 1014.23 1014.30 1014.44 1014.55 1014.69 1014.74 1014.74 1014.76 1014.68 1014.72 1014.62 1014.59 1014.49 1014.48 1014.37 1014.33 1014.74
1005.04 1006.29 1007.75 1008.44 1009.11 1009.42 1009.91 1010.17 1010.37 1010.65 1010.96 1011.24 1011.58 1011.92 1012.23 1012.53 1012.78 1013.10 1013.34 1013.58 1013.67 1013.75 1013.95 1014.06 1014.15 1014.24 1014.37 1014.41 1014.39 1014.58 1014.61 1014.68 1014.67 1014.65 1014.62 1013.78 1013.59 1014.69 1014.70 1014.62 1014.62 1014.66 1014.82
1005.17 1006.34 1007.06 1008.17 1008.71 1009.18 1009.67 1010.03 1010.36 1010.62 1011.03 1011.21 1011.51 1011.90 1012.13 1012.41 1012.73 1012.93 1013.29 1013.62 1013.76 1013.93 1014.04 1014.12 1014.35 1014.47 1014.53 1014.53 1014.59 1014.75 1014.73 1014.62 1014.63 1014.53 1013.71 1013.64 1013.78 1014.76 1014.85 1014.82 1014.80 1014.79 1014.97
1005.43 1006.31 1006.76 1007.84 1008.32 1008.74 1009.18 1009.74 1010.26 1010.66 1011.06 1011.26 1011.63 1011.81 1012.09 1012.36 1012.62 1012.77 1013.06 1013.39 1013.61 1013.90 1014.10 1014.28 1014.37 1014.51 1014.60 1014.71 1014.80 1014.91 1014.93 1014.76 1014.68 1014.36 1013.61 1013.70 1013.92 1014.27 1014.83 1014.84 1014.75 1014.78 1014.95
1005.39 1006.08 1006.81 1007.78 1008.38 1008.67 1009.00 1009.68 1010.18 1010.54 1010.98 1011.26 1011.58 1011.77 1012.06 1012.36 1012.61 1012.77 1013.09 1013.27 1013.41 1013.63 1013.82 1014.16 1014.39 1014.51 1014.67 1014.73 1014.89 1014.95 1014.88 1014.89 1014.69 1013.35 1013.69 1013.91 1014.08 1014.68 1014.85 1014.88 1014.78 1014.76 1014.86
1005.00 1005.67 1006.51 1007.90 1008.34 1008.65 1009.11 1009.72 1010.35 1010.72 1011.01 1011.26 1011.56 1011.83 1011.98 1012.24 1012.52 1012.87 1013.10 1013.25 1013.30 1013.45 1013.77 1014.03 1014.26 1014.38 1014.51 1014.63 1014.82 1014.87 1014.89 1014.80 1014.22 1013.04 1013.45 1013.65 1013.64 1014.58 1014.86 1014.76 1014.66 1014.69 1014.87
1004.67 1005.54 1006.01 1007.78 1008.53 1008.91 1009.07 1009.47 1010.13 1010.61 1010.88 1011.13 1011.44 1011.68 1012.08 1012.28 1012.43 1012.79 1013.15 1013.23 1013.28 1013.41 1013.64 1013.86 1014.06 1014.31 1014.45 1014.56 1014.71 1014.73 1014.76 1014.79 1013.93 1013.22 1013.17 1013.41 1014.16 1014.60 1014.70 1014.54 1014.44 1014.50 1014.78
1004.55 1005.39 1006.06 1006.99 1008.31 1009.00 1009.29 1009.42 1009.71 1010.14 1010.64 1011.00 1011.24 1011.58 1012.04 1012.42 1012.46 1012.76 1013.08 1013.17 1013.41 1013.58 1013.70 1013.84 1014.02 1014.25 1014.37 1014.50 1014.64 1014.70 1014.56 1014.57 1014.05 1012.73 1013.03 1013.31 1014.14 1014.54 1014.55 1014.39 1014.32 1014.44 1014.71
1004.42 1005.04 1005.51 1006.27 1007.13 1007.71 1008.36 1009.16 1009.56 1009.91 1010.36 1010.78 1011.07 1011.32 1011.72 1012.24 1012.45 1012.74 1012.94 1013.15 1013.46 1013.64 1013.75 1013.95 1014.10 1014.22 1014.28 1014.36 1014.40 1014.48 1014.60 1014.46 1013.86 1013.02 1012.63 1012.74 1014.03 1014.51 1014.47 1014.42 1014.37 1014.49 1014.66
1003.88 1004.64 1005.21 1005.72 1006.21 1006.73 1007.00 1007.88 1009.26 1009.77 1010.12 1010.46 1010.85 1011.34 1011.62 1011.54 1011.91 1012.18 1012.51 1012.72 1013.20 1013.53 1013.75 1013.93 1014.00 1013.99 1014.05 1014.10 1014.17 1014.27 1014.30 1013.14 1012.60 1012.62 1012.44 1013.19 1013.99 1014.48 1014.46 1014.38 1014.40 1014.51 1014.57
1003.20 1003.91 1004.65 1005.58 1005.89 1006.30 1006.43 1006.96 1008.07 1008.67 1009.36 1009.75 1009.88 1010.26 1010.92 1010.85 1010.92 1011.21 1011.67 1012.47 1012.86 1013.11 1013.19 1013.35 1013.73 1013.94 1013.98 1012.52 1012.69 1013.71 1013.06 1012.36 1012.56 1012.40 1012.40 1013.35 1013.98 1014.30 1014.31 1014.31 1014.35 1014.44 1014.53
1002.66 1003.16 1003.72 1004.90 1005.88 1005.98 1006.17 1006.41 1007.00 1007.60 1008.05 1008.52 1009.02 1009.28 1009.78 1010.05 1010.25 1010.72 1010.77 1011.60 1012.05 1012.88 1013.05 1013.13 1012.65 1012.66 1012.42 1012.07 1011.91 1012.09 1012.06 1012.55 1012.19 1012.13 1012.43 1013.38 1013.85 1014.09 1014.07 1014.11 1014.17 1014.29 1014.37
1002.48 1002.75 1003.48 1004.26 1005.46 1005.92 1005.80 1006.07 1006.16 1006.54 1006.96 1007.40 1007.81 1008.52 1008.80 1009.26 1009.55 1009.79 1009.93 1010.33 1010.98 1010.95 1010.87 1011.85 1011.73 1011.47 1011.75 1012.15 1012.14 1012.15 1012.17 1012.11 1011.82 1011.85 1012.04 1013.19 1013.64 1013.82 1013.84 1013.80 1013.85 1013.95 1014.21
1002.58 1002.58 1002.93 1003.63 1004.65 1005.26 1005.73 1005.28 1005.38 1005.48 1005.89 1006.15 1006.57 1007.29 1007.84 1008.07 1008.57 1009.19 1009.40 1009.55 1010.14 1010.30 1010.89 1011.32 1010.65 1011.48 1011.59 1011.85 1011.96 1012.05 1012.06 1011.92 1012.01 1012.01 1011.67 1012.70 1013.30 1013.55 1013.53 1013.49 1013.48 1013.56 1013.80
1002.23 1002.20 1002.41 1002.91 1003.63 1004.39 1004.67 1004.86 1004.71 1005.12 1005.01 1005.49 1005.71 1005.94 1006.94 1007.32 1007.76 1008.29 1008.82 1009.21 1009.29 1009.57 1010.06 1010.36 1010.81 1010.48 1011.33 1011.23 1011.49 1011.80 1011.99 1011.77 1011.63 1011.72 1011.45 1011.83 1012.62 1013.05 1013.11 1013.16 1013.18 1013.25 1013.37
1001.77 1001.95 1002.26 1002.60 1003.03 1003.48 1003.69 1004.01 1004.18 1004.08 1004.43 1004.46 1004.86 1005.41 1006.08 1007.04 1007.17 1007.72 1008.07 1008.42 1008.74 1009.15 1009.64 1010.10 1010.45 1011.02 1010.58 1010.79 1011.13 1011.32 1011.56 1011.86 1011.50 1011.43 1011.54 1011.44 1011.69 1012.21 1012.62 1012.74 1012.87 1012.90 1013.03
1001.68 1001.79 1001.89 1001.97 1001.98 1002.61 1002.77 1002.99 1003.17 1003.23 1003.50 1003.55 1003.84 1004.52 1005.40 1006.22 1006.78 1007.18 1007.24 1007.74 1008.05 1008.55 1009.13 1009.45 1010.23 1010.36 1010.46 1010.38 1010.96 1011.64 1011.78 1011.37 1011.01 1011.20 1011.60 1011.26 1011.21 1011.10 1011.80 1012.04 1012.38 1012.56 1012.71
1001.39 1001.55 1001.64 1001.73 1001.75 1001.96 1002.15 1002.32 1002.46 1002.67 1002.85 1002.91 1003.19 1003.69 1004.48 1005.46 1006.16 1006.54 1006.87 1007.11 1007.63 1008.08 1008.57 1009.16 1009.68 1009.88 1009.89 1010.37 1010.70 1011.36 1011.29 1010.64 1010.70 1010.79 1010.86 1010.95 1011.05 1011.11 1010.79 1011.32 1011.77 1012.19 1012.34
1001.01 1001.24 1001.22 1001.24 1001.22 1001.61 1001.83 1001.83 1001.84 1001.75 1001.95 1002.42 1002.62 1003.11 1003.94 1004.76 1005.40 1006.33 1006.46 1006.66 1007.19 1007.51 1007.98 1008.59 1009.13 1009.57 1010.10 1010.18 1010.29 1010.09 1010.29 1010.63 1010.58 1010.34 1010.52 1010.68 1010.73 1011.00 1010.90 1010.69 1011.14 1011.56 1012.18
1000.38 1000.42 1000.50 1000.61 1000.83 1001.10 1001.00 1000.92 1000.75 1000.53 1000.97 1001.66 1002.11 1002.75 1003.55 1004.28 1005.17 1005.86 1005.92 1006.34 1006.89 1006.80 1007.34 1008.11 1008.99 1009.13 1009.51 1010.20 1010.20 1009.68 1009.44 1009.45 1010.05 1009.92 1009.77 1010.50 1010.41 1010.35 1010.16 1010.75 1010.99 1010.94 1011.54
999.42 999.56 999.57 999.78 1000.03 1000.40 1000.27 1000.23 999.85 999.74 999.95 1000.75 1001.61 1002.47 1003.27 1004.18 1004.78 1005.10 1005.38 1005.68 1006.34 1006.55 1007.34 1008.06 1008.31 1008.53 1009.28 1010.02 1009.71 1009.81 1008.90 1008.45 1008.88 1009.56 1009.80 1009.98 1009.96 1009.94 1010.14 1010.49 1010.56 1010.98 1010.74
998.12 998.46 998.75 998.91 999.20 999.49 999.85 999.86 1000.05 999.99 1000.30 1000.62 1001.22 1002.50 1003.35 1003.73 1004.20 1004.62 1005.08 1005.28 1005.95 1006.24 1007.04 1007.54 1008.16 1008.28 1008.82 1009.74 1010.07 1009.69 1008.47 1008.17 1008.53 1009.33 1009.73 1009.78 1009.88 1010.12 1010.25 1010.39 1010.70 1011.03 1011.15
996.86 997.30 997.70 998.11 998.50 998.63 998.99 998.69 999.03 999.07 999.47 1000.13 1000.88 1002.27 1002.73 1003.29 1003.87 1004.55 1005.11 1005.26 1005.73 1006.06 1006.28 1007.11 1007.85 1007.83 1008.51 1009.09 1009.74 1009.90 1009.42 1009.14 1008.57 1009.17 1009.41 1009.53 1009.87 1010.02 1010.16 1010.40 1010.75 1011.16 1011.62
995.88 996.35 996.82 997.34 997.53 997.77 997.93 998.19 998.66 998.81 999.10 1000.18 1000.69 1001.70 1002.79 1003.35 1003.89 1004.40 1004.67 1005.21 1005.59 1005.58 1006.29 1006.87 1007.29 1007.84 1008.49 1008.34 1008.09 1008.65 1009.41 1009.16 1009.37 1009.28 1009.07 1009.53 1009.98 1010.10 1010.18 1010.46 1010.63 1011.03 1011.58
995.37 995.75 996.12 996.59 996.73 997.27 997.61 998.09 998.40 998.60 998.88 999.54 1000.35 1002.04 1002.74 1003.33 1003.70 1004.04 1004.49 1004.87 1005.29 1005.60 1006.21 1006.81 1007.32 1007.81 1008.12 1008.07 1008.17 1008.48 1008.80 1008.66 1008.43 1009.20 1009.32 1009.37 1009.66 1010.00 1010.38 1010.56 1010.82 1011.00 1011.16
Thickness
5850 5843 5829 5821 5814 5811 5809 5804 5800 5796 5792 5789 5785 5782 5776 5773 5769 5766 5765 5762 5759 5757 5754 5751 5748 5745 5742 5738 5735 5734 5732 5730 5729 5729 5728 5729 5731 5730 5732 5735 5735 5738 5736
5857 5843 5829 5823 5815 5809 5805 5801 5797 5793 5791 5788 5783 5778 5774 5769 5765 5761 5760 5756 5753 5750 5747 5744 5744 5741 5739 5738 5735 5731 5727 5725 5724 5722 5723 5723 5724 5725 5727 5728 5730 5731 5731
5853 5843 5831 5823 5815 5810 5804 5800 5797 5794 5790 5785 5780 5774 5770 5766 5763 5758 5754 5749 5747 5745 5740 5738 5736 5735 5733 5732 5732 5727 5725 5722 5721 5720 5719 5724 5726 5719 5719 5721 5722 5725 5724
5850 5839 5834 5824 5817 5811 5805 5801 5798 5794 5787 5782 5778 5772 5767 5763 5757 5756 5751 5746 5743 5739 5735 5732 5730 5727 5725 5725 5724 5720 5718 5719 5717 5717 5722 5721 5719 5713 5712 5714 5716 5717 5719
5845 5837 5833 5823 5818 5814 5809 5803 5797 5791 5785 5780 5774 5770 5766 5762 5757 5754 5749 5744 5741 5736 5733 5728 5725 5721 5719 5717 5714 5712 5711 5713 5712 5714 5718 5716 5714 5712 5708 5708 5710 5712 5713
5843 5836 5829 5821 5815 5813 5809 5800 5795 5789 5783 5777 5770 5766 5763 5760 5756 5752 5747 5744 5741 5736 5732 5726 5721 5717 5713 5711 5708 5707 5707 5705 5707 5716 5713 5710 5708 5704 5703 5703 5705 5707 5708
5843 5838 5830 5818 5813 5810 5806 5798 5791 5786 5780 5775 5768 5763 5760 5756 5752 5747 5743 5741 5738 5735 5730 5725 5719 5716 5713 5709 5706 5704 5702 5702 5705 5713 5710 5708 5708 5701 5698 5699 5702 5703 5703
5841 5836 5832 5817 5809 5805 5803 5798 5791 5785 5780 5774 5769 5764 5757 5753 5750 5744 5739 5736 5733 5730 5726 5721 5718 5713 5710 5706 5703 5701 5699 5697 5702 5707 5707 5705 5700 5696 5694 5696 5698 5699 5698
5840 5832 5827 5818 5806 5799 5797 5795 5792 5786 5779 5773 5769 5762 5755 5749 5746 5742 5736 5733 5728 5724 5721 5718 5714 5710 5707 5702 5700 5697 5696 5695 5697 5706 5702 5699 5694 5690 5690 5691 5693 5694 5693
5832 5828 5827 5820 5812 5805 5799 5793 5788 5784 5779 5772 5765 5761 5755 5747 5743 5738 5734 5728 5723 5719 5716 5712 5709 5706 5703 5700 5698 5695 5692 5691 5694 5699 5700 5698 5689 5684 5684 5685 5686 5687 5688
5827 5824 5823 5819 5814 5808 5805 5797 5785 5778 5774 5770 5764 5756 5750 5746 5740 5735 5731 5727 5721 5716 5712 5709 5706 5704 5701 5699 5696 5693 5690 5696 5698 5696 5697 5691 5683 5678 5677 5678 5679 5680 5682
5822 5822 5820 5813 5810 5807 5804 5799 5787 5780 5772 5768 5765 5759 5750 5747 5744 5739 5734 5725 5720 5716 5713 5710 5704 5699 5697 5706 5703 5693 5694 5698 5694 5693 5691 5684 5677 5673 5672 5672 5673 5675 5676
5824 5823 5822 5812 5802 5800 5798 5795 5788 5782 5777 5771 5767 5763 5756 5750 5745 5739 5736 5727 5721 5712 5705 5703 5706 5703 5703 5704 5703 5699 5697 5690 5692 5690 5685 5677 5672 5669 5668 5668 5668 5670 5672
5819 5820 5818 5813 5801 5795 5796 5792 5791 5785 5780 5776 5770 5763 5759 5753 5747 5742 5739 5733 5725 5720 5718 5707 5708 5707 5703 5699 5696 5694 5690 5688 5689 5686 5682 5672 5667 5665 5664 5665 5665 5666 5667
5810 5815 5814 5811 5801 5795 5789 5793 5791 5788 5783 5780 5774 5769 5763 5757 5749 5742 5738 5734 5726 5721 5713 5708 5709 5695 5697 5694 5691 5688 5685 5684 5681 5678 5678 5670 5663 5661 5661 5662 5663 5663 5664
5808 5812 5813 5809 5802 5795 5791 5789 5789 5785 5786 5781 5777 5774 5765 5757 5751 5744 5736 5732 5728 5723 5714 5710 5704 5703 5694 5693 5690 5683 5679 5679 5677 5674 5674 5669 5663 5658 5658 5659 5659 5661 5662
5806 5808 5804 5803 5800 5796 5793 5790 5786 5787 5785 5782 5778 5771 5764 5754 5750 5744 5737 5733 5728 5720 5713 5707 5701 5694 5695 5692 5686 5681 5676 5671 5671 5670 5667 5667 5664 5660 5656 5657 5657 5658 5659
5802 5799 5801 5802 5801 5796 5793 5791 5788 5787 5784 5783 5781 5772 5763 5754 5747 5742 5739 5732 5726 5721 5712 5707 5697 5693 5690 5688 5681 5671 5667 5669 5670 5666 5661 5663 5663 5663 5657 5656 5656 5655 5655
5796 5795 5794 5795 5793 5792 5790 5789 5788 5784 5782 5782 5779 5773 5765 5753 5746 5741 5735 5731 5724 5718 5711 5703 5695 5692 5687 5682 5676 5668 5665 5669 5666 5663 5661 5659 5658 5658 5659 5657 5656 5653 5654
5791 5789 5789 5788 5789 5785 5783 5784 5785 5784 5784 5779 5776 5771 5763 5753 5746 5736 5732 5728 5723 5716 5710 5702 5694 5689 5681 5677 5673 5671 5667 5662 5660 5661 5658 5655 5655 5653 5654 5656 5656 5654 5653
5784 5785 5784 5782 5782 5779 5779 5778 5780 5782 5781 5775 5774 5768 5759 5751 5741 5731 5729 5725 5718 5715 5708 5699 5688 5684 5679 5672 5665 5665 5665 5665 5657 5658 5659 5651 5651 5652 5654 5650 5652 5655 5653
5780 5781 5784 5781 5780 5776 5776 5778 5784 5784 5782 5776 5769 5761 5754 5743 5736 5731 5727 5723 5716 5711 5702 5693 5686 5682 5674 5666 5660 5654 5654 5660 5659 5653 5651 5648 5647 5648 5648 5646 5650 5650 5655
5779 5779 5779 5781 5779 5776 5777 5777 5775 5776 5771 5766 5761 5750 5742 5738 5734 5729 5723 5720 5713 5708 5697 5690 5683 5679 5667 5660 5654 5650 5651 5649 5649 5646 5641 5641 5640 5639 5641 5642 5644 5645 5648
5780 5782 5783 5780 5777 5777 5776 5776 5773 5770 5763 5762 5755 5744 5740 5736 5730 5723 5716 5714 5708 5703 5698 5689 5681 5678 5666 5655 5649 5645 5646 5644 5640 5630 5634 5634 5631 5632 5634 5637 5639 5640 5641
5781 5782 5782 5779 5778 5776 5776 5774 5769 5765 5764 5756 5751 5741 5731 5728 5723 5718 5714 5708 5703 5701 5693 5685 5678 5670 5662 5658 5656 5649 5639 5638 5633 5626 5623 5623 5622 5626 5630 5633 5637 5637 5637
5778 5779 5779 5776 5776 5773 5771 5767 5764 5761 5758 5752 5746 5728 5723 5720 5717 5715 5710 5705 5700 5694 5686 5680 5673 5665 5659 5655 5652 5646 5637 5634 5633 5623 5619 5620 5620 5622 5624 5629 5632 5636 5637